Regional Weather Roundup
Issued by NWS Huntsville, AL

Home | Current Version | Previous Version | Text Only | Print | Product List | Glossary On
Versions: 1 2 3 4 5 6 7 8 9 10 11 12 13 14 15 16 17 18 19 20 21 22 23 24 25 26 27 28 29 30 31 32 33 34 35 36 37 38 39 40 41 42 43 44 45 46 47 48 49 50
372
ASUS44 KHUN 181310
RWRHUN

WEATHER ROUNDUP FOR THE TENNESSEE VALLEY
NATIONAL WEATHER SERVICE HUNTSVILLE AL
700 AM CST WED JAN 18 2017

ALZ001>004-181400-
NORTHWEST ALABAMA

CITY           SKY/WX    TMP DP  RH WIND       PRES   REMARKS
COURTLAND HCN    N/A     50 N/A N/A NW3         N/A
RUSSELLVILLE     N/A     50 N/A N/A MISG        N/A
SHOALS AIRPORT CLOUDY    51  44  77 CALM      30.19R
$$

ALZ005>007-016-181400-
NORTH CENTRAL ALABAMA

CITY           SKY/WX    TMP DP  RH WIND       PRES   REMARKS
CULLMAN AG STN   N/A     54 N/A N/A CALM        N/A
DECATUR AP     CLOUDY    52  48  86 N7        30.18S
HUNTSVILLE AP  CLOUDY    53  47  79 N8        30.17S
MERIDIANVILLE  CLOUDY    50  45  81 N6        30.19R
REDSTONE ARSN  CLOUDY    52  47  83 N6        30.17R
$$

ALZ008>010-181400-
NORTHEAST ALABAMA

CITY           SKY/WX    TMP DP  RH WIND       PRES   REMARKS
ALBERTVILLE    CLOUDY    54  54 100 CALM      30.15S
FORT PAYNE     LGT RAIN  55  52  88 MISG      30.14F
SCOTTSBORO AP  CLOUDY    57  50  77 NW3       30.17R
SCOTTSBORO HCN   N/A     55 N/A N/A MISG        N/A
VALLEY HEAD      N/A     55 N/A N/A MISG        N/A
$$

TNZ076-096-097-181400-
SOUTHEASTERN MIDDLE TENNESSEE

CITY           SKY/WX    TMP DP  RH WIND       PRES   REMARKS
TULLAHOMA      NOT AVBL
$$

...SURROUNDING SITES...

CITY           SKY/WX    TMP DP  RH WIND       PRES   REMARKS
ATLANTA        MOCLDY    63  60  90 W7        30.13S
ANNISTON       CLOUDY    63  61  93 W5        30.16R
BIRMINGHAM     CLOUDY    61  59  93 NW3       30.19R
CHATTANOOGA    MOCLDY    57  49  74 NW3       30.16R
DALTON         CLOUDY    55  55 100 N3        30.15R
GADSDEN        CLOUDY    58  55  90 NW3       30.17R
GOLDEN TRNGL   CLOUDY    55  50  82 N7        30.12S
HALEYVILLE     CLOUDY    51  47  86 VRB3      30.20R
JACKSON TN     CLOUDY    43  42  97 CALM      30.21S
MEMPHIS        CLOUDY    47  41  80 E5        30.21R
NASHVILLE      CLOUDY    45  39  79 NW6       30.22R
OXFORD MS      CLOUDY    48  45  87 N3        30.21R
ROME           CLOUDY    59  53  80 SW6       30.14S
TUPELO         CLOUDY    51  47  86 N5        30.19R
TUSCALOOSA     CLOUDY    61  58  90 N7        30.17R
$$

...GULF COAST WEATHER...

CITY           SKY/WX    TMP DP  RH WIND       PRES   REMARKS
GULFPORT       FOG       67  67 100 CALM      30.15R VSB 1/4
PASCAGOULA     FOG       66  65  96 CALM      30.16R VSB 1/4
MOBILE         FOG       67  65  93 CALM      30.17S VSB 1
GULF SHORES    FOG       64  64 100 N5        30.17R VSB 1/4
PENSACOLA      FOG       65  64  97 N3        30.17R VSB 1/4
DESTIN         FOG       65  65 100 CALM      30.16S VSB 1/4
PANAMA CITY    FOG       64  64 100 E3        30.16S VSB 0
APPALACHICOLA  MOCLDY    61  61 100 NE3       30.16S
$$





USA.gov is the U.S. government's official web portal to all federal, state and local government web resources and services.